FW1312 Weather Reports


Display with metric or nautical units.
time (UTC)temp
F
wind
direction
speed
MPH
gust
MPH
rain 1hr
in
rain 24hr
in
rain mn
in
humidity
%
barometer
mb
20260503221600 78 213 5.0 10.0 0.00 0.00 0.00 65 1017.4
20260503220027 77 171 4.0 12.0 0.00 0.00 0.00 66 1017.5
20260503214542 77 186 6.0 10.0 0.00 0.00 0.00 67 1017.9
20260503213028 77 146 6.0 12.0 0.00 0.00 0.00 68 1017.9
20260503211524 78 114 4.0 10.0 0.00 0.00 0.00 68 1018.2
20260503210021 78 181 3.0 10.0 0.00 0.00 0.00 70 1018.6
20260503204520 77 134 7.0 14.0 0.00 0.00 0.00 71 1018.8
20260503203018 77 259 2.0 8.0 0.00 0.00 0.00 72 1018.9
20260503201522 77 155 6.0 10.0 0.00 0.00 0.00 73 1019.3
20260503200023 77 229 0.0 11.0 0.00 0.00 0.00 74 1019.5
20260503194513 77 111 3.0 10.0 0.00 0.00 0.00 75 1019.7
20260503193051 76 216 5.0 8.0 0.00 0.00 0.00 76 1019.9
20260503191540 76 242 4.0 12.0 0.00 0.00 0.00 77 1020.2
20260503190009 76 50 1.0 10.0 0.00 0.00 0.00 78 1020.4
20260503184509 75 261 4.0 11.0 0.00 0.00 0.00 80 1020.6
20260503183011 75 211 6.0 11.0 0.00 0.00 0.00 80 1020.8
20260503181600 75 225 5.0 10.0 0.00 0.00 0.00 81 1021.0
20260503180024 75 185 3.0 10.0 0.00 0.00 0.00 82 1021.3
20260503174514 74 171 4.0 13.0 0.00 0.00 0.00 83 1021.7
20260503173036 74 223 4.0 10.0 0.00 0.00 0.00 84 1022.0
20260503171503 73 215 5.0 12.0 0.00 0.00 0.00 85 1022.2
20260503051525 56 38 0.0 0.0 0.00 0.09 0.00 85 1020.7
20260503044504 57 38 1.0 2.0 0.00 0.12 0.09 85 1020.6
20260503043102 57 38 1.0 3.0 0.00 0.12 0.09 85 1020.6
20260503041615 58 38 1.0 2.0 0.00 0.12 0.09 85 1020.6
20260503040027 58 38 1.0 3.0 0.00 0.12 0.09 85 1020.5
20260503034534 58 38 2.0 3.0 0.00 0.15 0.09 85 1020.5
20260503033010 58 38 2.0 3.0 0.00 0.15 0.09 85 1020.4
20260503031604 59 39 1.0 2.0 0.00 0.15 0.09 85 1020.1
20260503030041 59 39 0.0 0.0 0.00 0.15 0.09 85 1020.1
20260503024523 60 40 0.0 1.0 0.00 0.18 0.09 85 1020.1
20260503023024 60 40 0.0 1.0 0.00 0.18 0.09 85 1019.9
20260503021522 61 40 0.0 0.0 0.00 0.18 0.09 85 1019.9
20260503020038 62 40 0.0 1.0 0.00 0.18 0.09 85 1019.5
20260503014505 63 40 0.0 3.0 0.00 0.21 0.09 86 1019.4
20260503013017 64 338 2.0 4.0 0.00 0.21 0.09 86 1019.2
20260503011609 66 338 3.0 5.0 0.00 0.21 0.09 86 1019.1
20260503010106 67 351 2.0 4.0 0.00 0.21 0.09 87 1019.0
20260503004528 68 360 3.0 5.0 0.00 0.26 0.09 87 1018.8
20260503003108 69 360 2.0 5.0 0.00 0.26 0.09 88 1018.8
20260503001538 70 17 3.0 8.0 0.00 0.26 0.09 89 1018.7
20260502234535 71 9 5.0 12.0 0.00 0.30 0.09 90 1018.5
20260502233037 71 20 5.0 10.0 0.00 0.30 0.09 90 1018.4
20260502231502 72 348 5.0 14.0 0.00 0.30 0.09 91 1018.3
20260502230036 72 14 6.0 15.0 0.00 0.30 0.09 91 1018.4
20260502224544 72 5 4.0 11.0 0.00 0.35 0.09 92 1018.5
20260502223012 72 27 4.0 12.0 0.00 0.35 0.09 92 1018.4